Tracking 35274 objects as of 10-Sep-2026
HD Live streaming from Space Station
objects crossing your sky now

STARLINK-32717

Track STARLINK-32717 now!
10-day predictions
STARLINK-32717 is classified as:


NORAD ID: 62491
Int'l Code: 2025-003E
Launch date: January 6, 2025
Source: United States (US)
Launch site: AIR FORCE EASTERN TEST RANGE (AFETR)
Your satellite tracking list
Your tracking list is empty




NASA's NSSDC Master Catalog

Two Line Element Set (TLE):
1 62491U 25003E   26252.23254282  .00018598  00000-0  68344-3 0  9996
2 62491  43.0017 332.2869 0002740 281.6084  78.4461 15.27588505 94744
Source of the keplerian elements: AFSPC